Saint Paul, MN

3:43 AM CDT on August 29, 2016 (GMT -0500)
Saint Paul Downtown-Holman

Weather History for KSTP - June, 2013

Change the Weather History Date:

Thursday, June 13, 2013

  Actual Average Record
Temperature  
Mean Temperature 67 °F -  
Max Temperature 77 °F 74 °F 90 °F (2007)
Min Temperature 57 °F 55 °F 50 °F (2014)
Cooling Degree Days 2    
Growing Degree Days 17 (Base 50)    
Moisture  
Dew Point 52 °F    
Average Humidity 56    
Maximum Humidity 72    
Minimum Humidity 44    
Precipitation  
Precipitation 0.03 in - - ()
Sea Level Pressure  
Sea Level Pressure 30.04 in    
Wind  
Wind Speed 8 mph (NNE)    
Max Wind Speed 12 mph    
Max Gust Speed 17 mph    
Visibility 10 miles    
Events      
Averages and records for this station are not official NWS values.
T = Trace of Precipitation, MM = Missing Value Source: NWS Daily Summary

Daily Weather History Graph

Daily Weather History Graph

Search for Another Location

Airport or City:

Trip Planner

Search our weather history database for the weather conditions in past years. The results will help you decide how hot, cold, wet, or windy it might be!

Date:

Astronomy

Jun. 13, 2013 Rise Set
Actual Time 5:25 AM CDT 8:59 PM CDT
Civil Twilight 4:48 AM CDT 9:36 PM CDT
Nautical Twilight 3:58 AM CDT 10:26 PM CDT
Astronomical Twilight 2:54 AM CDT 11:31 PM CDT
Moon 10:12 AM CDT (6/13) 11:54 PM CDT (6/13)
Length of Visible Light 16h 48m
Length of Day
15h 34m
Waxing Crescent, 22% of the Moon is Illuminated
Jun 13
Waxing Crescent
Jun 16
First Quarter
Jun 23
Full
Jun 29
Last Quarter
Jul 8
New

Hourly Weather History & Observations

Time (CDT) Temp. Dew Point Humidity Pressure Visibility Wind Dir Wind Speed Gust Speed Precip Events Conditions
12:53 AM 66.9 °F 48.0 °F 51% 29.92 in 10.0 mi North 11.5 mph - N/A   Clear
1:53 AM 64.0 °F 48.0 °F 56% 29.95 in 10.0 mi NNW 10.4 mph - N/A   Clear
2:53 AM 61.0 °F 48.0 °F 62% 29.96 in 10.0 mi NW 8.1 mph - N/A   Clear
3:53 AM 57.9 °F 48.9 °F 72% 29.99 in 10.0 mi NNW 8.1 mph - 0.01 in   Clear
4:53 AM 57.0 °F 48.0 °F 72% 30.00 in 10.0 mi NW 4.6 mph - N/A   Clear
5:53 AM 57.9 °F 48.9 °F 72% 30.02 in 10.0 mi NNW 5.8 mph - N/A   Clear
6:53 AM 60.1 °F 50.0 °F 69% 30.04 in 10.0 mi NNW 5.8 mph - N/A   Clear
7:53 AM 63.0 °F 51.1 °F 65% 30.05 in 10.0 mi NNE 5.8 mph - N/A   Clear
8:53 AM 66.9 °F 53.1 °F 61% 30.05 in 10.0 mi NNE 8.1 mph - N/A   Clear
9:53 AM 68.0 °F 53.1 °F 59% 30.07 in 10.0 mi NNE 6.9 mph - N/A   Clear
10:53 AM 71.1 °F 54.0 °F 55% 30.07 in 10.0 mi Variable 5.8 mph - N/A   Clear
11:53 AM 73.9 °F 53.1 °F 48% 30.08 in 10.0 mi North 9.2 mph - 0.01 in   Clear
12:53 PM 75.0 °F 54.0 °F 48% 30.08 in 10.0 mi North 11.5 mph - N/A   Clear
1:53 PM 75.9 °F 54.0 °F 46% 30.07 in 10.0 mi NNE 9.2 mph - N/A   Partly Cloudy
2:53 PM 75.0 °F 54.0 °F 48% 30.07 in 10.0 mi NNE 10.4 mph - N/A   Partly Cloudy
3:53 PM 77.0 °F 55.0 °F 47% 30.06 in 10.0 mi North 5.8 mph - N/A   Clear
4:53 PM 77.0 °F 55.0 °F 47% 30.06 in 10.0 mi North 8.1 mph 17.3 mph N/A   Scattered Clouds
5:53 PM 75.9 °F 53.1 °F 45% 30.05 in 10.0 mi ENE 6.9 mph - 0.01 in   Clear
6:53 PM 75.0 °F 52.0 °F 44% 30.05 in 10.0 mi East 5.8 mph - N/A   Clear
7:53 PM 73.9 °F 53.1 °F 48% 30.06 in 10.0 mi East 5.8 mph - N/A   Clear
8:53 PM 72.0 °F 54.0 °F 53% 30.05 in 10.0 mi East 3.5 mph - N/A   Clear
9:53 PM 68.0 °F 57.0 °F 68% 30.06 in 10.0 mi Calm Calm - N/A   Clear
10:53 PM 66.9 °F 54.0 °F 63% 30.07 in 10.0 mi Calm Calm - N/A   Clear
11:53 PM 66.9 °F 48.9 °F 52% 30.07 in 10.0 mi East 6.9 mph - N/A   Clear